Delavan, Wisconsin, United States (53115)
Lat: 42.63N, Lon: 88.64W
Wx Zone: WIZ070
Local Info
Past Weather Observations for Today

NOTE: This archive is for the closest National Weather Service station to Delavan. Information may differ from the station used for current weather conditions.

Click here for Long-term Archive

Time Weather Temperature Dewpoint Humidity Pressure Winds Precip Visibility
14:55
Mostly Cloudy
73°F / 23°C 57°F / 14°C 57% 29.92 in
(1013 mb)
W 8.1 mph
(W 13 kph)
- 10SM
14:35
Partly Cloudy
75°F / 24°C 55°F / 13°C 50% 29.92 in
(1013 mb)
SSW 9.2 mph
(SSW 15 kph)
- 10SM
14:15
Clear
77°F / 25°C 55°F / 13°C 47% 29.92 in
(1013 mb)
SSW 9.2 mph
(SSW 15 kph)
- 10SM
13:55
Clear
77°F / 25°C 55°F / 13°C 47% 29.92 in
(1013 mb)
WNW 8.1 mph
(WNW 13 kph)
- 10SM
13:35
Clear
77°F / 25°C 55°F / 13°C 47% 29.92 in
(1013 mb)
SSW 5.8 mph
(SSW 9 kph)
- 10SM
13:15
Partly Cloudy
77°F / 25°C 54°F / 12°C 44% 29.92 in
(1013 mb)
W 5.8 mph
(W 9 kph)
- 10SM
12:55
Partly Cloudy
75°F / 24°C 55°F / 13°C 50% 29.92 in
(1013 mb)
SSW 6.9 mph
(SSW 11 kph)
- 10SM
12:35
Partly Cloudy
73°F / 23°C 59°F / 15°C 61% 29.92 in
(1013 mb)
SSW 6.9 mph
(SSW 11 kph)
- 10SM
12:15
Partly Cloudy
73°F / 23°C 59°F / 15°C 61% 29.92 in
(1013 mb)
SSW 6.9 mph
(SSW 11 kph)
- 10SM
11:55
Clear
73°F / 23°C 59°F / 15°C 61% 29.92 in
(1013 mb)
W 8.1 mph
(W 13 kph)
- 10SM
11:35
Clear
75°F / 24°C 57°F / 14°C 54% 29.92 in
(1013 mb)
W 5.8 mph
(W 9 kph)
- 10SM
11:15
Clear
75°F / 24°C 55°F / 13°C 50% 29.92 in
(1013 mb)
SSW 10.4 mph
(SSW 17 kph)
- 10SM
10:55
Clear
75°F / 24°C 57°F / 14°C 54% 29.92 in
(1013 mb)
W 8.1 mph
(W 13 kph)
- 10SM
10:35
Clear
75°F / 24°C 59°F / 15°C 57% 29.92 in
(1013 mb)
WNW 5.8 mph
(WNW 9 kph)
- 10SM
10:15
Clear
73°F / 23°C 59°F / 15°C 61% 29.92 in
(1013 mb)
W 5.8 mph
(W 9 kph)
- 10SM
09:55
Clear
73°F / 23°C 59°F / 15°C 61% 29.92 in
(1013 mb)
W 6.9 mph
(W 11 kph)
- 10SM
09:35
Clear
73°F / 23°C 61°F / 16°C 65% 29.92 in
(1013 mb)
W 5.8 mph
(W 9 kph)
- 10SM
09:15
Clear
72°F / 22°C 63°F / 17°C 73% 29.92 in
(1013 mb)
W 4.6 mph
(W 7 kph)
- 10SM
08:55
Clear
70°F / 21°C 63°F / 17°C 78% 29.92 in
(1013 mb)
NW 3.5 mph
(NW 6 kph)
- 10SM
08:35
Clear
70°F / 21°C 63°F / 17°C 78% 29.92 in
(1013 mb)
Calm - 10SM
08:15
Clear
66°F / 19°C 66°F / 19°C 100% 29.92 in
(1013 mb)
Calm - 10SM
07:55
Clear
64°F / 18°C 64°F / 18°C 100% 29.92 in
(1013 mb)
Calm - 10SM
07:35
Clear
64°F / 18°C 64°F / 18°C 100% 29.89 in
(1012 mb)
Calm - 10SM
07:15
Clear
63°F / 17°C 63°F / 17°C 100% 29.89 in
(1012 mb)
Calm - 10SM
06:55
Clear
61°F / 16°C 61°F / 16°C 100% 29.89 in
(1012 mb)
Calm - 10SM
06:35
Clear
Fog And Mist
59°F / 15°C 59°F / 15°C 100% 29.89 in
(1012 mb)
Calm - 2SM
06:15
Overcast
Fog
57°F / 14°C 57°F / 14°C 100% 29.89 in
(1012 mb)
Calm - 1/2SM
05:55
Overcast
Fog
55°F / 13°C 55°F / 13°C 100% 29.89 in
(1012 mb)
Calm - M1/4SM
05:35
Overcast
Fog
55°F / 13°C 55°F / 13°C 100% 29.89 in
(1012 mb)
Calm - M1/4SM
05:15
Overcast
Fog
57°F / 14°C 57°F / 14°C 100% 29.89 in
(1012 mb)
Calm - M1/4SM
04:55
Overcast
Fog
55°F / 13°C 55°F / 13°C 100% 29.89 in
(1012 mb)
Calm - 1/4SM
04:35
Overcast
Fog
57°F / 14°C 57°F / 14°C 100% 29.89 in
(1012 mb)
Calm - 1/4SM
04:15
Obscured
Fog
57°F / 14°C 57°F / 14°C 100% 29.89 in
(1012 mb)
Calm - 1/4SM
03:55
Obscured
Fog
59°F / 15°C 59°F / 15°C 100% 29.89 in
(1012 mb)
Calm - 1/4SM
03:35
Mostly Cloudy
Fog
59°F / 15°C 59°F / 15°C 100% 29.89 in
(1012 mb)
Calm - 1/4SM
03:15
Mostly Cloudy
Fog
59°F / 15°C 59°F / 15°C 100% 29.89 in
(1012 mb)
Calm - 1/2SM
02:55
Clear
Fog And Mist
59°F / 15°C 59°F / 15°C 100% 29.89 in
(1012 mb)
Calm - 2SM
02:35
Clear
61°F / 16°C 61°F / 16°C 100% 29.89 in
(1012 mb)
SW 3.5 mph
(SW 6 kph)
- 7SM
02:15
Clear
Fog And Mist
59°F / 15°C 59°F / 15°C 100% 29.89 in
(1012 mb)
SW 3.5 mph
(SW 6 kph)
- 5SM
01:55
Clear
Fog And Mist
59°F / 15°C 59°F / 15°C 100% 29.86 in
(1011 mb)
SW 4.6 mph
(SW 7 kph)
- 5SM
01:35
Clear
Fog And Mist
61°F / 16°C 61°F / 16°C 100% 29.86 in
(1011 mb)
Calm - 4SM
01:15
Clear
Fog And Mist
61°F / 16°C 61°F / 16°C 100% 29.86 in
(1011 mb)
Calm - 2SM
00:55
Clear
Fog And Mist
61°F / 16°C 61°F / 16°C 100% 29.86 in
(1011 mb)
Calm - 5SM
00:35
Clear
63°F / 17°C 63°F / 17°C 100% 29.86 in
(1011 mb)
Calm - 10SM
00:15
Clear
63°F / 17°C 63°F / 17°C 100% 29.86 in
(1011 mb)
Calm - 10SM
Time Weather Temperature Dewpoint Humidity Pressure Winds Precip Visibility


Weather for websites

WeatherForYou.com, LLC is not responsible for any damages or problems caused by this service. Current weather conditions are obtained from the closest station including government and personal stations which may have varying degrees of accuracy. Weather forecasts are derived from the NOAA NDFD. Like all things, this site belongs to Jesus Christ... He just trusts me to maintain it. If you have any questions or comments email webmaster@weatherforyou.com

Copyright © 2014, WeatherForYou.com LLC. All rights reserved.